Lid_Strength_Index
5 6 6 7 11 12 16 13 11 10 10 8 8 9 8 9 9 11 5 1 1 1 -0 -0 -1 -1 -1 -1 -1 -1 -1 -1 -2 -2 -2 -2 -2 -2 -2 -2 -2 -2 -2 -2 -2 -2 -1 -1 -1
6 5 7 9 13 17 16 12 11 9 7 7 8 9 9 8 7 5 4 1 0 1 -0 -0 -0 -1 -1 -1 -1 -1 -1 -1 -2 -2 -2 -2 -2 -2 -2 -2 -1 -1 -2 -2 -2 -2 -1 -1 -1
6 6 8 10 14 16 15 11 9 8 8 9 10 9 10 10 7 6 4 1 1 1 -0 -0 -0 -1 -1 -1 -1 -1 -1 -1 -2 -2 -2 -2 -2 -1 -2 -1 -1 -1 -1 -1 -2 -2 -1 -1 -1
8 7 8 13 15 12 11 10 10 9 8 8 9 9 9 8 6 4 3 2 1 1 -0 -0 -0 -1 -1 -1 -1 -1 -1 -1 -1 -2 -2 -2 -2 -2 -2 -2 -2 -2 -2 -2 -2 -1 -1 -1 -1
8 9 12 14 14 12 9 8 9 9 9 8 9 9 9 5 5 5 3 1 1 1 0 -0 -0 -0 -1 -1 -1 -1 -1 -1 -1 -1 -2 -2 -2 -2 -2 -2 -1 -1 -2 -2 -2 -1 -1 -1 -1
11 11 14 16 13 11 9 8 8 8 8 7 8 8 7 5 6 6 4 2 1 1 0 -0 1 0 -0 -0 -1 -1 -1 -1 -1 -1 -1 -1 -1 -1 -1 -1 -1 -1 -1 -1 -1 -1 -1 -1 -1
13 12 14 14 12 11 9 8 8 8 8 8 7 9 7 6 7 6 5 2 2 1 1 1 0 0 1 1 0 -0 -0 -0 -1 -1 -1 -1 -1 -1 -1 -1 -1 -1 -1 -1 -1 -1 -1 -1 -1
11 11 15 13 12 12 9 9 8 8 8 6 6 9 8 7 7 5 5 4 2 2 1 1 1 -0 -0 0 2 1 1 0 0 0 1 1 1 0 0 1 -0 -1 -1 -1 -1 -1 -1 -0 1
11 15 16 14 13 11 9 12 11 9 9 11 9 8 7 9 6 5 6 5 3 2 2 1 0 0 -0 -0 1 2 2 1 1 1 2 2 0 0 1 1 0 -1 -1 -1 -1 -0 0 1 2
15 17 16 14 14 13 12 13 11 13 14 13 12 11 10 10 9 8 7 6 5 3 2 1 1 0 -0 0 0 0 0 0 -0 0 1 0 1 1 1 2 2 1 1 -0 -0 1 2 5 6
15 17 15 15 14 14 13 13 13 13 14 13 14 12 13 13 12 9 8 7 6 4 2 1 1 0 0 0 1 1 0 -0 -0 -0 0 -0 2 3 3 2 2 2 3 2 2 4 7 8 9
17 15 15 14 14 15 15 14 15 14 13 11 11 12 14 13 13 13 12 10 9 6 3 1 1 0 1 1 1 0 1 -0 0 0 0 0 2 3 3 2 2 2 3 4 6 8 9 10 11
16 16 14 14 14 14 14 15 15 15 13 12 12 11 12 13 14 13 13 12 10 7 5 2 1 1 0 0 1 0 0 0 1 1 0 0 1 3 3 3 3 4 5 6 8 9 10 11 12
15 14 14 14 14 14 14 14 14 13 12 13 13 13 12 12 11 12 14 13 11 10 8 4 2 1 0 1 1 1 1 0 0 0 0 1 1 2 4 5 4 5 5 7 8 9 11 13 12
14 16 15 14 14 15 15 16 16 13 12 14 14 14 13 12 11 12 11 11 12 11 10 8 2 1 1 1 1 1 1 1 0 0 0 1 2 2 4 5 5 6 6 8 9 10 12 13 12
17 18 20 16 15 14 15 19 14 12 14 14 13 13 14 14 13 13 12 11 10 10 11 9 6 2 1 1 1 0 1 1 0 0 1 2 2 3 3 5 5 7 7 8 9 11 12 13 13
19 23 21 19 15 17 17 20 16 13 13 14 13 13 13 12 12 12 12 12 11 11 10 9 8 5 1 1 1 1 0 0 0 0 1 2 2 3 4 5 5 7 7 8 9 12 12 13 13
24 24 22 23 19 18 19 20 17 15 15 15 14 13 13 12 12 10 11 12 13 12 12 10 7 5 2 1 1 1 1 1 1 1 1 2 3 3 4 5 6 7 8 8 9 11 12 12 13
22 23 24 21 18 20 20 21 20 17 16 16 15 13 12 11 10 13 12 13 13 13 14 13 13 10 2 2 2 2 2 2 1 2 2 3 3 4 5 5 8 7 8 9 9 11 12 13 13
22 24 24 21 19 20 21 21 19 17 16 16 17 14 15 18 15 15 14 14 14 14 15 14 14 13 12 1 2 2 2 1 1 2 2 3 3 4 5 5 8 7 8 10 10 11 14 14 13
22 23 23 23 21 20 20 22 19 16 17 16 17 18 18 18 18 17 17 16 15 15 15 15 15 14 13 11 3 1 1 1 2 2 3 3 4 5 4 5 6 8 8 10 10 11 11 13 14
23 20 21 22 23 26 21 28 21 19 18 18 17 18 19 19 19 19 18 18 17 17 16 15 15 15 13 12 10 2 3 4 2 2 2 3 4 5 5 5 6 7 8 8 9 10 11 12 13
22 19 21 21 23 24 23 25 21 19 21 19 18 18 18 18 19 20 20 19 18 17 17 16 16 15 14 14 13 5 3 2 2 2 3 4 5 5 5 6 7 8 8 9 9 10 11 11 12
18 20 20 21 23 28 23 24 22 21 19 18 16 16 16 17 18 19 19 19 19 18 18 17 17 16 15 15 14 10 3 3 3 3 4 5 5 5 5 6 7 7 8 9 10 10 10 11 12
19 23 30 32 31 28 21 23 21 16 15 14 15 14 14 15 16 18 19 20 20 20 19 18 18 17 16 15 14 12 8 2 3 4 5 5 5 5 5 5 6 7 8 9 9 9 10 10 11
21 25 29 35 29 27 20 21 19 14 13 12 12 12 13 14 15 16 16 18 19 19 20 19 19 18 17 15 15 13 11 5 5 5 6 6 6 6 6 6 6 7 8 9 9 9 10 10 11
23 27 22 29 25 27 23 21 15 14 14 13 13 14 14 14 15 15 16 16 17 18 19 19 19 18 17 16 14 14 13 12 8 6 7 7 7 8 8 7 8 9 9 9 9 10 10 10 11
22 20 27 27 38 36 25 24 22 18 16 15 15 15 14 14 14 15 15 15 16 17 18 18 19 19 17 16 14 14 14 13 12 10 9 7 7 7 8 8 8 9 9 9 9 10 10 11 11
23 25 24 24 26 30 29 28 20 18 16 16 15 14 14 15 14 14 14 15 15 16 17 18 19 19 18 17 16 15 14 14 14 13 13 10 8 8 8 7 9 9 9 9 9 9 11 11 11
22 25 24 31 30 26 26 27 17 16 15 15 15 14 14 13 14 14 15 15 16 16 17 18 18 19 18 17 16 16 15 15 15 14 13 13 12 9 9 9 10 10 10 10 9 10 11 11 12